Volver al catálogo

STARLINK-31207

ActivoComunicacionesVLEO
NORAD 59035·PAYLOAD·🇺🇸 United States

Lanzado Feb 25, 2024 desde Cape Canaveral Space Force Station

Loading…

Próximos Pases (próximas 24 horas)

TLE

ActualizadoSource: CelesTrak SupGP

Época: Sep 15, 2026, 02:54 UTC

1 59035C 24038N   26258.12131944 -.00016785  00000+0 -60861-3 0  2587
2 59035  43.0029  33.7350 0001489 273.4610 300.3887 15.27551031    18

Sigue STARLINK-31207 en tiempo real con AllMySat

Download on the App Store